Hourly Weather Dziadowo

Today, 15 May, Saturday

Time Temperature Precipitation Wind Pressure Humidity
00:00 +10°C° 0.1 mm 3 mps 751 mmHg 93%
01:00 +8°C° 0.1 mm 4 mps 751 mmHg 95%
02:00 +8°C° 0.5 mm 4 mps 751 mmHg 95%
03:00 +8°C° 0.5 mm 4 mps 751 mmHg 96%
04:00 +8°C° 0.5 mm 4 mps 751 mmHg 96%
05:00 +8°C° 0.3 mm 4 mps 752 mmHg 94%
06:00 +8°C° 0.3 mm 4 mps 752 mmHg 92%
07:00 +8°C° 0.3 mm 5 mps 752 mmHg 90%
08:00 +11°C° 0 mm 4 mps 752 mmHg 82%
09:00 +12°C° 0 mm 4 mps 752 mmHg 73%
10:00 +14°C° 0 mm 4 mps 752 mmHg 64%
11:00 +15°C° 0 mm 4 mps 752 mmHg 62%
12:00 +16°C° 0 mm 3 mps 752 mmHg 59%
13:00 +17°C° 0 mm 2 mps 752 mmHg 57%
14:00 +17°C° 0.2 mm 2 mps 751 mmHg 61%
15:00 +17°C° 0.2 mm 3 mps 751 mmHg 64%
16:00 +17°C° 0.2 mm 3 mps 751 mmHg 68%
17:00 +16°C° 0.6 mm 3 mps 751 mmHg 73%
18:00 +14°C° 0.6 mm 3 mps 751 mmHg 79%
19:00 +13°C° 0.6 mm 3 mps 751 mmHg 84%
20:00 +12°C° 0.1 mm 3 mps 751 mmHg 86%
21:00 +11°C° 0.1 mm 3 mps 750 mmHg 87%
22:00 +10°C° 0.1 mm 3 mps 750 mmHg 88%
23:00 +10°C° 0 mm 3 mps 750 mmHg 90%

Tomorrow, 16 May, Sunday

Time Temperature Precipitation Wind Pressure Humidity
00:00 +9°C° 0 mm 3 mps 750 mmHg 91%
01:00 +9°C° 0 mm 3 mps 750 mmHg 93%
02:00 +9°C° 0 mm 3 mps 750 mmHg 93%
03:00 +8°C° 0 mm 3 mps 750 mmHg 94%
04:00 +8°C° 0 mm 3 mps 750 mmHg 94%
05:00 +8°C° 0.4 mm 3 mps 750 mmHg 94%
06:00 +9°C° 0.4 mm 3 mps 750 mmHg 94%
07:00 +8°C° 0.4 mm 4 mps 750 mmHg 95%
08:00 +11°C° 0.2 mm 4 mps 750 mmHg 88%
09:00 +12°C° 0.2 mm 4 mps 750 mmHg 81%
10:00 +13°C° 0.2 mm 4 mps 750 mmHg 74%
11:00 +14°C° 0.1 mm 4 mps 750 mmHg 68%
12:00 +16°C° 0.1 mm 3 mps 750 mmHg 63%
13:00 +17°C° 0.1 mm 3 mps 750 mmHg 58%
14:00 +16°C° 0.3 mm 3 mps 750 mmHg 62%
15:00 +16°C° 0.3 mm 3 mps 750 mmHg 66%
16:00 +14°C° 0.3 mm 3 mps 750 mmHg 70%
17:00 +14°C° 0.1 mm 3 mps 750 mmHg 73%
18:00 +14°C° 0.1 mm 2 mps 749 mmHg 75%
19:00 +14°C° 0.1 mm 2 mps 749 mmHg 78%
20:00 +12°C° 0 mm 2 mps 749 mmHg 81%
21:00 +10°C° 0 mm 2 mps 749 mmHg 84%
22:00 +9°C° 0 mm 2 mps 749 mmHg 87%
23:00 +9°C° 0 mm 3 mps 749 mmHg 88%

Day after tomorrow, 17 May, Monday

Time Temperature Precipitation Wind Pressure Humidity
00:00 +8°C° 0 mm 3 mps 749 mmHg 89%
01:00 +8°C° 0 mm 3 mps 749 mmHg 91%
02:00 +8°C° 0 mm 3 mps 749 mmHg 92%
03:00 +7°C° 0 mm 3 mps 749 mmHg 93%
04:00 +7°C° 0 mm 3 mps 749 mmHg 95%
05:00 +8°C° 0 mm 3 mps 749 mmHg 92%
06:00 +10°C° 0 mm 3 mps 749 mmHg 88%
07:00 +11°C° 0 mm 3 mps 749 mmHg 85%
08:00 +12°C° 0.1 mm 3 mps 749 mmHg 79%
09:00 +13°C° 0.1 mm 3 mps 749 mmHg 74%
10:00 +14°C° 0.1 mm 3 mps 749 mmHg 68%
11:00 +16°C° 0.4 mm 3 mps 749 mmHg 67%
12:00 +16°C° 0.4 mm 3 mps 749 mmHg 66%
13:00 +17°C° 0.4 mm 2 mps 749 mmHg 65%
14:00 +17°C° 0.2 mm 2 mps 749 mmHg 63%
15:00 +17°C° 0.2 mm 2 mps 749 mmHg 62%
16:00 +17°C° 0.2 mm 2 mps 749 mmHg 61%
17:00 +16°C° 0.3 mm 2 mps 749 mmHg 69%
18:00 +14°C° 0.3 mm 2 mps 749 mmHg 76%
19:00 +13°C° 0.3 mm 2 mps 749 mmHg 84%
20:00 +12°C° 0 mm 2 mps 750 mmHg 87%
21:00 +10°C° 0 mm 2 mps 750 mmHg 89%
22:00 +9°C° 0 mm 3 mps 750 mmHg 92%
23:00 +9°C° 0 mm 3 mps 750 mmHg 93%

18 May, Tuesday

Time Temperature Precipitation Wind Pressure Humidity
00:00 +9°C° 0 mm 3 mps 750 mmHg 94%
01:00 +8°C° 0 mm 3 mps 750 mmHg 95%
02:00 +8°C° 0 mm 3 mps 750 mmHg 95%
03:00 +7°C° 0 mm 3 mps 750 mmHg 96%
04:00 +7°C° 0 mm 3 mps 750 mmHg 97%
05:00 +8°C° 0 mm 3 mps 750 mmHg 95%
06:00 +8°C° 0 mm 4 mps 750 mmHg 94%
07:00 +10°C° 0 mm 4 mps 750 mmHg 92%
08:00 +10°C° 0.1 mm 4 mps 751 mmHg 91%
09:00 +10°C° 0.1 mm 4 mps 751 mmHg 91%
10:00 +11°C° 0.1 mm 3 mps 751 mmHg 90%
11:00 +12°C° 0.5 mm 4 mps 751 mmHg 84%
12:00 +13°C° 0.5 mm 4 mps 751 mmHg 79%
13:00 +14°C° 0.5 mm 5 mps 751 mmHg 73%
14:00 +14°C° 0.3 mm 5 mps 752 mmHg 75%
15:00 +14°C° 0.3 mm 4 mps 752 mmHg 77%
16:00 +13°C° 0.3 mm 4 mps 752 mmHg 80%
17:00 +12°C° 0.2 mm 4 mps 752 mmHg 82%
18:00 +12°C° 0.2 mm 3 mps 753 mmHg 85%
19:00 +12°C° 0.2 mm 2 mps 753 mmHg 87%
20:00 +10°C° 0 mm 2 mps 753 mmHg 89%
21:00 +9°C° 0 mm 3 mps 753 mmHg 91%
22:00 +8°C° 0 mm 3 mps 753 mmHg 92%
23:00 +8°C° 0 mm 3 mps 754 mmHg 93%

19 May, Wednesday

Time Temperature Precipitation Wind Pressure Humidity
00:00 +8°C° 0 mm 3 mps 754 mmHg 94%
01:00 +8°C° 0 mm 3 mps 754 mmHg 95%
02:00 +7°C° 0.3 mm 4 mps 754 mmHg 96%
03:00 +7°C° 0.3 mm 4 mps 754 mmHg 96%
04:00 +8°C° 0.3 mm 5 mps 754 mmHg 96%
05:00 +8°C° 0.3 mm 5 mps 755 mmHg 94%
06:00 +8°C° 0.3 mm 5 mps 755 mmHg 92%
07:00 +9°C° 0.3 mm 5 mps 755 mmHg 90%
08:00 +9°C° 0.1 mm 5 mps 756 mmHg 85%
09:00 +10°C° 0.1 mm 5 mps 756 mmHg 80%
10:00 +12°C° 0.1 mm 5 mps 756 mmHg 75%
11:00 +12°C° 0.2 mm 5 mps 756 mmHg 73%
12:00 +12°C° 0.2 mm 5 mps 756 mmHg 70%
13:00 +13°C° 0.2 mm 4 mps 756 mmHg 68%
14:00 +13°C° 0.2 mm 4 mps 756 mmHg 68%
15:00 +13°C° 0.2 mm 4 mps 756 mmHg 68%
16:00 +13°C° 0.2 mm 4 mps 756 mmHg 69%
17:00 +12°C° 0.2 mm 4 mps 756 mmHg 74%
18:00 +11°C° 0.2 mm 3 mps 756 mmHg 80%
19:00 +10°C° 0.2 mm 3 mps 756 mmHg 86%
20:00 +9°C° 0.1 mm 3 mps 756 mmHg 88%
21:00 +9°C° 0.1 mm 3 mps 757 mmHg 91%
22:00 +8°C° 0.1 mm 3 mps 757 mmHg 93%
23:00 +8°C° 0 mm 3 mps 757 mmHg 94%

20 May, Thursday

Time Temperature Precipitation Wind Pressure Humidity
00:00 +6°C° 0 mm 4 mps 757 mmHg 94%
01:00 +6°C° 0 mm 4 mps 757 mmHg 95%
02:00 +6°C° 0 mm 5 mps 757 mmHg 95%
03:00 +6°C° 0 mm 5 mps 757 mmHg 95%
04:00 +5°C° 0 mm 5 mps 758 mmHg 95%
05:00 +5°C° 0.1 mm 6 mps 758 mmHg 91%
06:00 +7°C° 0.1 mm 6 mps 758 mmHg 88%
07:00 +6°C° 0.1 mm 7 mps 759 mmHg 84%
08:00 +6°C° 0.1 mm 7 mps 759 mmHg 78%
09:00 +6°C° 0.1 mm 7 mps 759 mmHg 73%
10:00 +6°C° 0.1 mm 7 mps 759 mmHg 67%
11:00 +8°C° 0 mm 7 mps 759 mmHg 66%
12:00 +8°C° 0 mm 7 mps 759 mmHg 65%
13:00 +8°C° 0 mm 7 mps 759 mmHg 63%
14:00 +8°C° 0 mm 7 mps 759 mmHg 64%
15:00 +8°C° 0 mm 7 mps 759 mmHg 65%
16:00 +8°C° 0 mm 6 mps 759 mmHg 66%
17:00 +8°C° 0 mm 5 mps 759 mmHg 68%
18:00 +8°C° 0 mm 4 mps 759 mmHg 70%
19:00 +9°C° 0 mm 3 mps 759 mmHg 72%
20:00 +8°C° 0 mm 3 mps 758 mmHg 75%
21:00 +8°C° 0 mm 3 mps 758 mmHg 79%
22:00 +7°C° 0 mm 3 mps 758 mmHg 82%
23:00 +6°C° 0 mm 4 mps 757 mmHg 83%
Show more

We Need Your Consent

Meteoprog and our Service Providers may store and access personal data such as cookies, device identifiers or other similar technologies on your device and process such data to personalise content and ads, as well as provide social media features and to analyse the traffic.

  • Store and/or access information on your device

    Cookies, device identifiers or other information can be stored or accessed on your device for the purposes indicated above.

  • Personalised ads and content, ad and content measurement, audience insights, and products development

    Ads and content can be personalised based on a profile. More data can be added to better personalise ads and content. Ad and content performance can be measured. Insights about the audience who saw the ads and content can be derived. Such data can be used to develop or improve user’s experience, systems and software.

By clicking ‘I Agree’ you will allow the use of indicated cookies, device identifiers, web beacons or other similar technologies. Your settings can be changed in the browser on your device.

For certain purposes, legitimate interests may be relied on, rather than consent. You can read more about this in our Privacy and Cookie Policy.